sat.trackr.live / text

‹ back to catalog

ONEWEB-0356

NORAD 49283 · 2021-090E

PAYLOAD ACTIVE UNKNOWN

§ Identity

Operator
Country
UK
Launch date
2021-10-14
Launch site
VOSTO
Launch vehicle
Mass (kg)
RCS (m²)

Purposes: comms

External: N2YO · Heavens-Above · Gunter

§ Orbital elements

Epoch: 2026-05-25T02:53:30.356736Z

Period
109.03 min
Inclination
87.9175°
Eccentricity
0.0002644
Mean motion
13.20770793 rev/d
Perigee alt
1,179.8 km
Apogee alt
1,183.8 km
Semi-major
7,559.9 km
B*
5.1210e-4
RAAN
279.0332°
Arg perigee
90.7410°
Mean anomaly
269.4027°
Rev number
22,678

§ Raw data

ONEWEB-03561 49283U 21090E   26145.12049024  .00000221  00000+0  51210-3 0  99942 49283  87.9175 279.0332 0002644  90.7410 269.4027 13.20770793226782

JSON: /api/v1/satellites/49283 · /tle

For live sub-satellite position, see the globe view (requires WebGL).

§ Visibility from observer

Set your observer location to see the next 7 days of passes ≥ 10°. The values pass through the URL so the page stays shareable.

No JS? Fill the form by hand. The geolocation button needs JavaScript.